Springfield, OH

11:20 PM EST on December 10, 2016 (GMT -0500)
Springfield-Beckley Municipal

Weather History for KSGH - March, 2014

Change the Weather History Date:

Thursday, March 20, 2014

  Actual Average (KFFO) Record (KFFO)
Temperature  
Mean Temperature 39 °F -  
Max Temperature 46 °F 49 °F 83 °F (2012)
Min Temperature 32 °F 29 °F 23 °F (1999)
Degree Days  
Heating Degree Days 26    
Moisture  
Dew Point 30 °F    
Average Humidity 72    
Maximum Humidity 93    
Minimum Humidity 54    
Precipitation  
Precipitation 0.00 in - - ()
Sea Level Pressure  
Sea Level Pressure 30.05 in    
Wind  
Wind Speed 16 mph (West)    
Max Wind Speed 24 mph    
Max Gust Speed 29 mph    
Visibility 7 miles    
Events Rain    
Averages and records for this station are not official NWS values.
T = Trace of Precipitation, MM = Missing Value Source: NWS Daily Summary

Daily Weather History Graph

Daily Weather History Graph

Search for Another Location

Airport or City:

Trip Planner

Search our weather history database for the weather conditions in past years. The results will help you decide how hot, cold, wet, or windy it might be!

Date:

Astronomy

Mar. 20, 2014 Rise Set
Actual Time 7:38 AM EDT 7:47 PM EDT
Civil Twilight 7:11 AM EDT 8:14 PM EDT
Nautical Twilight 6:40 AM EDT 8:45 PM EDT
Astronomical Twilight 6:08 AM EDT 9:18 PM EDT
Moon No Moon Rise 9:44 AM EDT (3/20)
Length of Visible Light 13h 02m
Length of Day
12h 08m
Waning Gibbous, 84% of the Moon is Illuminated
Mar 20
Waning Gibbous
Mar 23
Last Quarter
Mar 30
New
Apr 7
First Quarter
Apr 15
Full

Hourly Weather History & Observations

Time (EDT) Temp. Windchill Dew Point Humidity Pressure Visibility Wind Dir Wind Speed Gust Speed Precip Events Conditions
12:56 AM 36.9 °F 25.4 °F 34.0 °F 89% 30.01 in 4.0 mi West 24.2 mph 28.8 mph 0.00 in Rain Light Rain
1:33 AM 35.6 °F 24.0 °F 33.8 °F 93% 30.00 in 5.0 mi West 23.0 mph 27.6 mph 0.00 in   Overcast
1:56 AM 34.9 °F 24.9 °F 32.0 °F 89% 30.02 in 5.0 mi West 16.1 mph 25.3 mph 0.00 in   Overcast
2:14 AM 35.6 °F 25.5 °F 28.4 °F 75% 30.01 in 7.0 mi West 17.3 mph 28.8 mph N/A   Overcast
2:56 AM 34.9 °F 25.7 °F 29.1 °F 79% 30.03 in 7.0 mi West 13.8 mph - N/A   Overcast
3:56 AM 34.9 °F 24.9 °F 28.0 °F 76% 30.01 in 7.0 mi West 16.1 mph - N/A   Overcast
4:56 AM 34.0 °F 23.0 °F 27.1 °F 76% 30.02 in 7.0 mi WNW 18.4 mph 23.0 mph N/A   Overcast
5:04 AM 33.8 °F 22.8 °F 26.6 °F 75% 30.01 in 7.0 mi West 18.4 mph 21.9 mph N/A   Overcast
5:56 AM 34.0 °F 27.2 °F 28.0 °F 79% 30.04 in 7.0 mi West 8.1 mph - N/A   Overcast
6:56 AM 32.9 °F 21.6 °F 27.1 °F 79% 30.06 in 8.0 mi West 18.4 mph 25.3 mph N/A   Overcast
7:56 AM 32.0 °F 21.2 °F 26.1 °F 79% 30.08 in 8.0 mi West 16.1 mph - N/A   Overcast
8:56 AM 32.9 °F 22.0 °F 25.2 °F 73% 30.09 in 6.0 mi West 17.3 mph 25.3 mph N/A   Haze
9:56 AM 34.9 °F 25.3 °F 27.1 °F 73% 30.11 in 6.0 mi West 15.0 mph 19.6 mph N/A   Haze
10:56 AM 36.9 °F 29.1 °F 28.0 °F 70% 30.11 in 7.0 mi West 11.5 mph - N/A   Mostly Cloudy
11:03 AM 37.4 °F 29.3 °F 28.4 °F 70% 30.09 in 6.0 mi West 12.7 mph - N/A   Haze
11:56 AM 39.9 °F 31.8 °F 29.1 °F 65% 30.11 in 7.0 mi West 15.0 mph - N/A   Partly Cloudy
12:56 PM 43.9 °F 37.2 °F 29.1 °F 56% 30.10 in 8.0 mi West 13.8 mph 20.7 mph N/A   Scattered Clouds
1:56 PM 46.9 °F - 31.1 °F 54% 30.07 in 8.0 mi WSW 16.1 mph 24.2 mph N/A   Mostly Cloudy
2:56 PM 45.0 °F 38.9 °F 30.0 °F 56% 30.06 in 7.0 mi West 12.7 mph 18.4 mph N/A   Mostly Cloudy
3:56 PM 45.9 °F 40.0 °F 31.1 °F 56% 30.04 in 7.0 mi West 12.7 mph - N/A   Mostly Cloudy
4:56 PM 45.0 °F 38.5 °F 32.0 °F 60% 30.04 in 6.0 mi West 13.8 mph 21.9 mph 0.00 in Rain Light Rain
5:56 PM 45.0 °F 40.1 °F 32.9 °F 63% 30.04 in 7.0 mi WNW 9.2 mph - 0.00 in   Mostly Cloudy
6:56 PM 45.0 °F - 32.9 °F 63% 30.04 in 7.0 mi Calm Calm - N/A   Mostly Cloudy
7:56 PM 43.0 °F - 32.9 °F 68% 30.04 in 8.0 mi Calm Calm - N/A   Mostly Cloudy
8:56 PM 39.9 °F - 34.0 °F 79% 30.05 in 8.0 mi Calm Calm - N/A   Mostly Cloudy
9:56 PM 41.0 °F - 32.9 °F 73% 30.05 in 8.0 mi Calm Calm - N/A   Mostly Cloudy
10:56 PM 39.9 °F 35.8 °F 34.0 °F 79% 30.05 in 7.0 mi NNE 5.8 mph - N/A   Mostly Cloudy
11:56 PM 36.9 °F - 32.0 °F 83% 30.07 in 7.0 mi Calm Calm - N/A   Mostly Cloudy